Weather in Novoselovka

Russia / Saratov Oblast     51°56′47″N   44°16′11″E
temp.,
°C
wind,
m/s
gust,
m/s
humid.,
%
clouds,
%
prec.,
mm/h
press.,
hPa
HPBL,
m
16 april, fri
fri1601:00+12sse3355100 0.0 101522
04:00+11e335896 0.0 101523
07:00+10se3460100 0.0 101653
10:00+15se344992 0.0 1016359
13:00+19se343592 0.0 10171079
16:00+20sse233288 0.0 10171854
19:00+18s124465 0.0 101727
22:00+13ese336342 0.3 101836
17 april, sat
sat1701:00+12ese23666 0.0 101822
04:00+10se337026 0.0 101922
07:00+10ese487133 0.0 1018140
10:00+16se695054 0.0 1018567
13:00+19se71037100 0.0 10182248
16:00+11wsw91186100 0.4 1019436
19:00+9wsw51086100 0.8 1020596
22:00+8ese128623 2.4 1021153
18 april, sun
sun1801:00+7nw229085 0.0 102124
04:00+6wnw22880 0.0 102112
07:00+6wnw22870 0.0 102135
10:00+11w22630 0.0 1020499
13:00+14sw33525 0.0 10201454
16:00+15wsw224462 0.0 10191823
19:00+14w225376 0.0 101956
22:00+11wnw3568100 0.0 1020156
19 april, mon
mon1901:00+10n227677 0.0 102046
04:00+9e4687100 0.2 1020180
07:00+8ene4787100 0.0 1020302
10:00+10ene677972 0.0 1020636
13:00+10ene6679100 0.0 1021729
16:00+9e6780100 0.1 1020807
19:00+7e6986100 0.0 1021570
22:00+6e61089100 0.0 1021437
20 april, tue
tue2001:00+6e61191100 0.0 1020402
04:00+6e71491100 0.0 1019522
07:00+6e91690100 0.0 1019546
10:00+7e101888100 0.0 1017599
13:00+10ese111880100 0.0 1016878
16:00+10se111982100 2.3 1014950
19:00+9ese112087100 4.3 1015936
22:00+9se122089100 10.0 1014908